Houston Clover, TX

10:43 PM CDT on August 23, 2017 (GMT -0500)
Clover

Weather History for KLVJ - September, 2013

Change the Weather History Date:

Thursday, September 5, 2013

  Actual Average (KEFD) Record (KEFD)
Temperature  
Mean Temperature 85 °F -  
Max Temperature 93 °F 88 °F 105 °F (2000)
Min Temperature 77 °F 72 °F 71 °F (1997)
Cooling Degree Days 20    
Growing Degree Days 35 (Base 50)    
Moisture  
Dew Point 73 °F    
Average Humidity 68    
Maximum Humidity 88    
Minimum Humidity 45    
Precipitation  
Precipitation 0.00 in - - ()
Sea Level Pressure  
Sea Level Pressure 30.05 in    
Wind  
Wind Speed 4 mph (ESE)    
Max Wind Speed 15 mph    
Max Gust Speed 20 mph    
Visibility 10 miles    
Events Thunderstorm    
Averages and records for this station are not official NWS values.
T = Trace of Precipitation, MM = Missing Value Source: NWS Daily Summary

Daily Weather History Graph

Daily Weather History Graph

Search for Another Location

Airport or City:

Trip Planner

Search our weather history database for the weather conditions in past years. The results will help you decide how hot, cold, wet, or windy it might be!

Date:

Astronomy

Sep. 05, 2013 Rise Set
Actual Time 7:00 AM CDT 7:37 PM CDT
Civil Twilight 6:36 AM CDT 8:02 PM CDT
Nautical Twilight 6:08 AM CDT 8:30 PM CDT
Astronomical Twilight 5:39 AM CDT 8:59 PM CDT
Moon 7:08 AM CDT (9/5) 7:37 PM CDT (9/5)
Length of Visible Light 13h 25m
Length of Day
12h 37m
New Moon, 0% of the Moon is Illuminated
Sep 5
New Moon
Sep 12
First Quarter
Sep 19
Full
Sep 26
Last Quarter
Oct 4
New

Hourly Weather History & Observations

Time (CDT) Temp. Heat Index Dew Point Humidity Pressure Visibility Wind Dir Wind Speed Gust Speed Precip Events Conditions
12:53 AM 79.0 °F - 73.9 °F 84% 30.04 in 10.0 mi Calm Calm - N/A   Clear
1:53 AM 77.0 °F - 73.0 °F 88% 30.03 in 10.0 mi Calm Calm - N/A   Clear
2:53 AM 78.1 °F - 73.0 °F 84% 30.03 in 10.0 mi Calm Calm - N/A   Clear
3:53 AM 78.1 °F - 73.0 °F 84% 30.02 in 10.0 mi Calm Calm - N/A   Clear
4:53 AM 77.0 °F - 73.0 °F 88% 30.03 in 10.0 mi Calm Calm - N/A   Clear
5:53 AM 78.1 °F - 73.0 °F 84% 30.03 in 10.0 mi Calm Calm - N/A   Clear
6:53 AM 78.1 °F - 73.0 °F 84% 30.05 in 10.0 mi Calm Calm - N/A   Clear
7:53 AM 80.1 °F 85.1 °F 75.0 °F 85% 30.06 in 10.0 mi NE 4.6 mph - N/A   Clear
8:53 AM 84.0 °F 92.6 °F 75.9 °F 76% 30.08 in 10.0 mi ENE 8.1 mph - N/A   Partly Cloudy
9:53 AM 86.0 °F 95.1 °F 75.0 °F 70% 30.09 in 10.0 mi ENE 8.1 mph - N/A   Partly Cloudy
10:53 AM 89.1 °F 98.0 °F 73.9 °F 61% 30.09 in 10.0 mi East 8.1 mph - N/A   Clear
11:53 AM 90.0 °F 96.9 °F 72.0 °F 55% 30.09 in 10.0 mi East 10.4 mph - N/A   Clear
12:53 PM 91.0 °F 97.6 °F 71.1 °F 52% 30.08 in 10.0 mi ESE 8.1 mph 16.1 mph N/A   Partly Cloudy
1:53 PM 90.0 °F 96.9 °F 72.0 °F 55% 30.06 in 10.0 mi East 10.4 mph - N/A   Partly Cloudy
2:53 PM 93.9 °F 100.8 °F 71.1 °F 47% 30.04 in 10.0 mi ESE 15.0 mph 18.4 mph N/A   Scattered Clouds
3:05 PM 93.2 °F 98.8 °F 69.8 °F 46% 30.03 in 10.0 mi SE 13.8 mph 19.6 mph N/A Thunderstorm Scattered Clouds
3:22 PM 93.2 °F 100.5 °F 71.6 °F 49% 30.03 in 10.0 mi ESE 15.0 mph 19.6 mph N/A   Scattered Clouds
3:53 PM 93.0 °F 97.9 °F 69.1 °F 45% 30.02 in 10.0 mi ESE 10.4 mph - N/A   Scattered Clouds
4:53 PM 91.9 °F 98.4 °F 71.1 °F 50% 30.01 in 10.0 mi SSE 11.5 mph 17.3 mph N/A   Clear
5:53 PM 90.0 °F 96.9 °F 72.0 °F 55% 30.03 in 10.0 mi SSE 8.1 mph - N/A   Partly Cloudy
6:53 PM 89.1 °F 97.0 °F 73.0 °F 59% 30.03 in 10.0 mi SE 8.1 mph - N/A   Clear
7:53 PM 86.0 °F 93.8 °F 73.9 °F 67% 30.04 in 10.0 mi South 3.5 mph - N/A   Clear
8:53 PM 84.9 °F 92.1 °F 73.9 °F 69% 30.04 in 10.0 mi Calm Calm - N/A   Clear
9:53 PM 84.0 °F 91.2 °F 73.9 °F 72% 30.06 in 10.0 mi Calm Calm - N/A   Clear
10:53 PM 80.1 °F 84.5 °F 73.9 °F 81% 30.05 in 10.0 mi Calm Calm - N/A   Clear
11:53 PM 80.1 °F 84.5 °F 73.9 °F 81% 30.05 in 10.0 mi Calm Calm - N/A   Clear